JES3141 SAAR-SABE

Flight info

Callsign JES3141
Flight time 0h 35m
Altitude 23000
Route SAAR VASA2G VASAL W20 MULTA W24 SNT SNT9R SABE
Aircraft A320/M-SDE3FGHIRWY/LB1

Departure

Time 2026-05-09 02:00
Airport Rosario Islas Malvinas International Airport (SAAR)

Arrival

Time 2026-05-09 02:35
Airport Aeroparque Jorge Newbery (SABE)
Time Latitude Longitude Altitude Speed Heading
2026-05-09 01:42 -32.91605 -60.78119 96 ft 0 kts 110°
2026-05-09 01:53 -32.91605 -60.78120 95 ft 1 kts 110°
2026-05-09 01:53 -32.91599 -60.78137 97 ft 2 kts 115°
2026-05-09 01:53 -32.91592 -60.78155 96 ft 2 kts 119°
2026-05-09 01:54 -32.91584 -60.78172 96 ft 2 kts 125°
2026-05-09 01:54 -32.91574 -60.78187 94 ft 2 kts 136°
2026-05-09 01:54 -32.91561 -60.78200 94 ft 2 kts 155°
2026-05-09 01:54 -32.91546 -60.78206 94 ft 2 kts 182°
2026-05-09 01:55 -32.91532 -60.78203 95 ft 1 kts 198°
2026-05-09 01:55 -32.91528 -60.78202 93 ft 0 kts 199°
2026-05-09 01:56 -32.91542 -60.78208 95 ft 4 kts 199°
2026-05-09 01:56 -32.91576 -60.78224 94 ft 7 kts 201°
2026-05-09 01:57 -32.91634 -60.78251 95 ft 11 kts 201°
2026-05-09 01:57 -32.91714 -60.78286 96 ft 13 kts 200°
2026-05-09 01:57 -32.91756 -60.78357 95 ft 12 kts 258°
2026-05-09 01:57 -32.91777 -60.78468 96 ft 15 kts 256°
2026-05-09 01:58 -32.91795 -60.78574 95 ft 10 kts 272°
2026-05-09 01:58 -32.91773 -60.78611 95 ft 0 kts 315°
2026-05-09 01:58 -32.91772 -60.78612 95 ft 2 kts 315°
2026-05-09 01:59 -32.91745 -60.78644 95 ft 8 kts 314°
2026-05-09 01:59 -32.91695 -60.78705 95 ft 13 kts 320°
2026-05-09 01:59 -32.91658 -60.78751 95 ft 1 kts 307°
2026-05-09 01:59 -32.91616 -60.78752 97 ft 15 kts 10°
2026-05-09 02:00 -32.91291 -60.78681 98 ft 84 kts 11°
2026-05-09 02:00 -32.90510 -60.78505 96 ft 141 kts 10°
2026-05-09 02:00 -32.89460 -60.78267 414 ft 157 kts
2026-05-09 02:00 -32.88378 -60.78016 1037 ft 160 kts
2026-05-09 02:01 -32.87260 -60.77764 1573 ft 168 kts 358°
2026-05-09 02:01 -32.86066 -60.77503 1972 ft 184 kts 359°
2026-05-09 02:01 -32.84727 -60.77145 2287 ft 212 kts 14°
2026-05-09 02:01 -32.83370 -60.76209 2589 ft 241 kts 40°
2026-05-09 02:02 -32.82285 -60.74589 3019 ft 261 kts 66°
2026-05-09 02:02 -32.81770 -60.72535 3913 ft 258 kts 89°
2026-05-09 02:02 -32.81901 -60.70449 4882 ft 251 kts 112°
2026-05-09 02:02 -32.82646 -60.68616 5807 ft 243 kts 134°
2026-05-09 02:03 -32.83860 -60.67262 6673 ft 238 kts 155°
2026-05-09 02:03 -32.85355 -60.66486 7481 ft 236 kts 170°
2026-05-09 02:03 -32.86914 -60.65888 8327 ft 240 kts 171°
2026-05-09 02:03 -32.88520 -60.65266 9188 ft 245 kts 172°
2026-05-09 02:04 -32.90161 -60.64626 10033 ft 251 kts 172°
2026-05-09 02:04 -32.91883 -60.63867 10440 ft 282 kts 160°
2026-05-09 02:04 -32.93602 -60.62468 10753 ft 313 kts 153°
2026-05-09 02:04 -32.95423 -60.60863 11023 ft 338 kts 151°
2026-05-09 02:05 -32.97340 -60.59127 11505 ft 352 kts 150°
2026-05-09 02:05 -32.99300 -60.57321 12223 ft 358 kts 150°
2026-05-09 02:05 -33.01278 -60.55493 12958 ft 362 kts 151°
2026-05-09 02:05 -33.03262 -60.53670 13721 ft 367 kts 151°
2026-05-09 02:06 -33.05306 -60.51806 14354 ft 372 kts 152°
2026-05-09 02:06 -33.07381 -60.49922 14978 ft 376 kts 152°
2026-05-09 02:06 -33.09480 -60.48021 15601 ft 381 kts 152°
2026-05-09 02:07 -33.13756 -60.44153 16835 ft 389 kts 151°
2026-05-09 02:07 -33.15931 -60.42183 17456 ft 394 kts 151°
2026-05-09 02:07 -33.18095 -60.40219 18066 ft 398 kts 150°
2026-05-09 02:07 -33.20314 -60.38201 18627 ft 403 kts 150°
2026-05-09 02:08 -33.22554 -60.36163 19209 ft 407 kts 149°
2026-05-09 02:08 -33.24824 -60.34099 19738 ft 412 kts 149°
2026-05-09 02:08 -33.27122 -60.32010 20298 ft 416 kts 148°
2026-05-09 02:08 -33.29434 -60.29907 20848 ft 419 kts 148°
2026-05-09 02:09 -33.31768 -60.27782 21367 ft 423 kts 147°
2026-05-09 02:09 -33.34128 -60.25631 21884 ft 426 kts 147°
2026-05-09 02:09 -33.36495 -60.23468 22405 ft 430 kts 146°
2026-05-09 02:09 -33.38884 -60.21283 22831 ft 433 kts 146°
2026-05-09 02:10 -33.41242 -60.19121 22957 ft 435 kts 146°
2026-05-09 02:10 -33.43648 -60.16919 22926 ft 435 kts 146°
2026-05-09 02:10 -33.46047 -60.14722 22954 ft 434 kts 146°
2026-05-09 02:10 -33.48441 -60.12527 22938 ft 433 kts 146°
2026-05-09 02:11 -33.50837 -60.10326 22942 ft 433 kts 146°
2026-05-09 02:11 -33.53227 -60.08128 22941 ft 433 kts 146°
2026-05-09 02:11 -33.55518 -60.05764 22932 ft 436 kts 135°
2026-05-09 02:11 -33.57554 -60.03066 22933 ft 437 kts 134°
2026-05-09 02:12 -33.59586 -60.00349 22952 ft 436 kts 134°
2026-05-09 02:12 -33.61604 -59.97647 22950 ft 436 kts 134°
2026-05-09 02:12 -33.63629 -59.94931 22947 ft 436 kts 134°
2026-05-09 02:12 -33.65659 -59.92207 22941 ft 436 kts 134°
2026-05-09 02:13 -33.67653 -59.89522 22945 ft 436 kts 134°
2026-05-09 02:13 -33.69658 -59.86815 22926 ft 435 kts 134°
2026-05-09 02:13 -33.71679 -59.84087 22937 ft 435 kts 134°
2026-05-09 02:13 -33.73690 -59.81373 22935 ft 435 kts 134°
2026-05-09 02:14 -33.75706 -59.78653 22947 ft 435 kts 133°
2026-05-09 02:14 -33.77706 -59.75948 22951 ft 434 kts 133°
2026-05-09 02:14 -33.79711 -59.73232 22949 ft 433 kts 133°
2026-05-09 02:14 -33.81710 -59.70526 22944 ft 432 kts 133°
2026-05-09 02:15 -33.83703 -59.67831 22936 ft 432 kts 134°
2026-05-09 02:15 -33.85707 -59.65125 22934 ft 431 kts 134°
2026-05-09 02:15 -33.87701 -59.62428 22938 ft 431 kts 134°
2026-05-09 02:15 -33.89694 -59.59731 22909 ft 431 kts 134°
2026-05-09 02:16 -33.91695 -59.57020 22918 ft 430 kts 133°
2026-05-09 02:16 -33.93654 -59.54361 22935 ft 430 kts 133°
2026-05-09 02:16 -33.95631 -59.51674 22906 ft 424 kts 133°
2026-05-09 02:16 -33.97544 -59.49068 22894 ft 407 kts 133°
2026-05-09 02:17 -33.99378 -59.46562 22894 ft 390 kts 133°
2026-05-09 02:17 -34.01136 -59.44156 22894 ft 375 kts 133°
2026-05-09 02:17 -34.02897 -59.41751 22715 ft 393 kts 133°
2026-05-09 02:17 -34.04738 -59.39243 22443 ft 402 kts 134°
2026-05-09 02:18 -34.06603 -59.36705 22174 ft 404 kts 134°
2026-05-09 02:18 -34.08440 -59.34200 21912 ft 404 kts 134°
2026-05-09 02:18 -34.10294 -59.31667 21636 ft 402 kts 134°
2026-05-09 02:18 -34.12154 -59.29122 21380 ft 401 kts 134°
2026-05-09 02:19 -34.13996 -59.26600 21121 ft 401 kts 134°
2026-05-09 02:19 -34.15816 -59.24111 20866 ft 400 kts 134°
2026-05-09 02:19 -34.17650 -59.21602 20612 ft 399 kts 134°
2026-05-09 02:19 -34.19494 -59.19075 20364 ft 398 kts 134°
2026-05-09 02:20 -34.21323 -59.16562 20107 ft 398 kts 134°
2026-05-09 02:20 -34.23147 -59.14052 19857 ft 397 kts 134°
2026-05-09 02:20 -34.24960 -59.11553 19626 ft 396 kts 134°
2026-05-09 02:20 -34.26774 -59.09052 19383 ft 395 kts 134°
2026-05-09 02:21 -34.28581 -59.06558 19137 ft 394 kts 134°
2026-05-09 02:21 -34.30384 -59.04070 18803 ft 390 kts 134°
2026-05-09 02:21 -34.32170 -59.01605 18275 ft 390 kts 134°
2026-05-09 02:21 -34.33950 -58.99149 17702 ft 389 kts 134°
2026-05-09 02:22 -34.35732 -58.96691 17163 ft 387 kts 134°
2026-05-09 02:22 -34.37505 -58.94246 16636 ft 384 kts 134°
2026-05-09 02:22 -34.39258 -58.91822 16113 ft 382 kts 134°
2026-05-09 02:22 -34.41004 -58.89405 15585 ft 380 kts 134°
2026-05-09 02:23 -34.42720 -58.87030 15064 ft 378 kts 134°
2026-05-09 02:23 -34.44447 -58.84638 14537 ft 376 kts 134°
2026-05-09 02:23 -34.46167 -58.82255 14018 ft 374 kts 134°
2026-05-09 02:23 -34.47873 -58.79889 13469 ft 372 kts 133°
2026-05-09 02:24 -34.49552 -58.77550 12926 ft 361 kts 134°
2026-05-09 02:24 -34.51163 -58.75300 12443 ft 344 kts 134°
2026-05-09 02:24 -34.52697 -58.73162 12005 ft 329 kts 134°
2026-05-09 02:24 -34.54163 -58.71122 11624 ft 315 kts 135°
2026-05-09 02:25 -34.55594 -58.69135 11102 ft 310 kts 135°
2026-05-09 02:25 -34.57001 -58.67178 10871 ft 307 kts 135°
2026-05-09 02:25 -34.58368 -58.65271 10855 ft 289 kts 135°
2026-05-09 02:25 -34.59672 -58.63448 10678 ft 287 kts 135°
2026-05-09 02:26 -34.60902 -58.61466 10107 ft 300 kts 124°
2026-05-09 02:26 -34.61755 -58.59169 9863 ft 303 kts 111°
2026-05-09 02:26 -34.62406 -58.56700 9477 ft 312 kts 111°
2026-05-09 02:26 -34.63074 -58.54199 9126 ft 309 kts 111°
2026-05-09 02:27 -34.63742 -58.51704 8717 ft 306 kts 111°
2026-05-09 02:27 -34.64389 -58.49279 8288 ft 297 kts 111°
2026-05-09 02:27 -34.65020 -58.46913 7869 ft 292 kts 111°
2026-05-09 02:27 -34.65635 -58.44597 7452 ft 284 kts 111°
2026-05-09 02:28 -34.66234 -58.42341 7041 ft 277 kts 112°
2026-05-09 02:28 -34.66821 -58.40130 6635 ft 271 kts 112°
2026-05-09 02:28 -34.67392 -58.37979 6236 ft 266 kts 112°
2026-05-09 02:28 -34.67954 -58.35863 5812 ft 261 kts 112°
2026-05-09 02:29 -34.68504 -58.33788 5361 ft 257 kts 112°
2026-05-09 02:29 -34.69048 -58.31733 4896 ft 255 kts 112°
2026-05-09 02:29 -34.69572 -58.29688 4465 ft 252 kts 108°
2026-05-09 02:29 -34.69614 -58.27580 4093 ft 252 kts 78°
2026-05-09 02:30 -34.68905 -58.25681 3729 ft 245 kts 49°
2026-05-09 02:30 -34.68107 -58.24722 3495 ft 242 kts 31°
2026-05-09 02:30 -34.66627 -58.23902 3250 ft 229 kts
2026-05-09 02:30 -34.65113 -58.23896 3043 ft 207 kts 334°
2026-05-09 02:31 -34.63946 -58.24703 2996 ft 185 kts 306°
2026-05-09 02:31 -34.63282 -58.25950 2958 ft 171 kts 282°
2026-05-09 02:31 -34.63087 -58.27312 2717 ft 159 kts 272°
2026-05-09 02:31 -34.62849 -58.28603 2491 ft 154 kts 282°
2026-05-09 02:32 -34.62449 -58.29771 2282 ft 145 kts 290°
2026-05-09 02:32 -34.61772 -58.31069 2042 ft 131 kts 294°
2026-05-09 02:32 -34.61436 -58.31668 1935 ft 125 kts 294°
2026-05-09 02:32 -34.60956 -58.32529 1764 ft 122 kts 294°
2026-05-09 02:33 -34.60481 -58.33381 1579 ft 121 kts 294°
2026-05-09 02:33 -34.60006 -58.34234 1404 ft 122 kts 294°
2026-05-09 02:33 -34.59534 -58.35082 1227 ft 121 kts 296°
2026-05-09 02:33 -34.59062 -58.35933 1058 ft 122 kts 296°
2026-05-09 02:34 -34.58577 -58.36786 877 ft 125 kts 299°
2026-05-09 02:34 -34.58103 -58.37652 691 ft 122 kts 300°
2026-05-09 02:34 -34.57628 -58.38534 507 ft 125 kts 302°
2026-05-09 02:34 -34.57133 -58.39414 338 ft 127 kts 303°
2026-05-09 02:35 -34.56641 -58.40292 148 ft 127 kts 303°
2026-05-09 02:35 -34.56155 -58.41159 29 ft 114 kts 301°
2026-05-09 02:35 -34.55810 -58.41784 25 ft 64 kts 304°
2026-05-09 02:35 -34.55649 -58.42072 27 ft 26 kts 304°
2026-05-09 02:36 -34.55564 -58.42224 27 ft 17 kts 304°
2026-05-09 02:36 -34.55505 -58.42329 28 ft 18 kts 304°
2026-05-09 02:36 -34.55426 -58.42472 28 ft 20 kts 304°
2026-05-09 02:36 -34.55359 -58.42471 27 ft 12 kts 71°
2026-05-09 02:37 -34.55375 -58.42368 29 ft 14 kts 112°
2026-05-09 02:37 -34.55438 -58.42266 30 ft 17 kts 127°
2026-05-09 02:37 -34.55510 -58.42150 30 ft 15 kts 127°
2026-05-09 02:37 -34.55572 -58.42048 27 ft 16 kts 127°
2026-05-09 02:38 -34.55643 -58.41924 29 ft 19 kts 124°
2026-05-09 02:38 -34.55724 -58.41778 30 ft 18 kts 124°
2026-05-09 02:38 -34.55781 -58.41643 29 ft 19 kts 116°
2026-05-09 02:38 -34.55848 -58.41485 25 ft 22 kts 117°
2026-05-09 02:39 -34.55908 -58.41345 29 ft 15 kts 116°
2026-05-09 02:39 -34.55849 -58.41280 29 ft 14 kts 358°
2026-05-09 02:39 -34.55807 -58.41312 27 ft 4 kts 13°
2026-05-09 02:39 -34.55780 -58.41289 26 ft 0 kts 36°
2026-05-09 02:40 -34.55779 -58.41288 26 ft 0 kts 36°